Lackland Air Force Base (Kelly Field Annex) Airport
KSKF : now visible

Airfield :











YOU CAN JOIN US ON...

 
LOGIN :

Register | Disclaimer

   EN    FR    IT 

 









Legend :    VFR   Marginal VFR   IFR   Intensive IFR   Very Intensive IFR
Visi :
Ceiling :
>= 8 km
>= 3000ft
5 to 8 km
1000 to 3000 ft
1500m to 5 km
500 to 1000 ft
800 to 1500m
200 to 500 ft
< 800m
< 200 ft
Symbols :   Thunderstorms  Fog  Heavy snow  Heavy precipitations  Wind > 20 kt






- Airport Elevation : 691 ft


KSKF - Lackland Air Force Base (Kelly Field Annex)

CURRENT METAR :
  • 172356Z AUTO 10008KT 10SM CLR 34/19 A2992 RMK AO2 SLP124 T03350188 10351 20320 57007 $

EXPIRED METARs :
  • 172256Z AUTO 15005KT 10SM CLR 34/19 A2993 RMK AO2 SLP127 T03420186 $
  • 172156Z AUTO 10007KT 10SM CLR 35/18 A2994 RMK AO2 SLP130 T03480179 $

TAF TAF KSKF
Valid from the 17 at 18:00 until the 19 at 00:00 UTC


171800Z 1718/1824 09006KT 9999 FEW060 SCT200 QNH2990INS
BECMG 1804/1805 VRB06KT 9999 SCT020 BKN030 QNH2992INS TX35/1721Z TN23/1812Z
KZHU FIR / North America



MET'MAP, your aeronautical weather chart ! - Copyright ORBIFLY December 2007 - Disclaimer

ORBIFLY MET'MAP TEAM :

Programming & Development : Alexandra Zaïnal
Concept & original design : Baudouin d'Aumeries
Assistance for programming : Marc-Olivier Méhu
Technical & hardware support : Manuel Goepfert

Contact : metmap@orbifly.com




SOURCES & CREDITS :

   NOAA       Earth
Advisory